Regional Weather Roundup
Issued by NWS Huntsville, AL

Home | Current Version | Previous Version | Text Only | Print | Product List | Glossary On
Versions: 1 2 3 4 5 6 7 8 9 10 11 12 13 14 15 16 17 18 19 20 21 22 23 24 25 26 27 28 29 30 31 32 33 34 35 36 37 38 39 40 41 42 43 44 45 46 47 48 49 50
000
ASUS44 KHUN 301210
RWRHUN

WEATHER ROUNDUP FOR THE TENNESSEE VALLEY
NATIONAL WEATHER SERVICE HUNTSVILLE AL
600 AM CST FRI JAN 30 2015

ALZ001>004-301300-
NORTHWEST ALABAMA

CITY           SKY/WX    TMP DP  RH WIND       PRES   REMARKS
SHOALS AIRPORT CLOUDY    42  29  59 N8G20     30.40R
6HR MIN TEMP:  42; 6HR MAX TEMP:  44;

$$

ALZ005>007-016-301300-
NORTH CENTRAL ALABAMA

CITY           SKY/WX    TMP DP  RH WIND       PRES   REMARKS
DECATUR AP     CLOUDY    40  30  67 N15       30.38R WCI  32
6HR MIN TEMP:  40; 6HR MAX TEMP:  42;

HUNTSVILLE AP  CLOUDY    41  30  65 N10       30.37R
6HR MIN TEMP:  41; 6HR MAX TEMP:  44;

HUN NWS/UAH      N/A     39  26  60 N13         N/A  WCI  31
MERIDIANVILLE  CLOUDY    37  25  60 N16       30.38R WCI  28
REDSTONE ARSN  CLOUDY    39  29  68 N16G24    30.37R WCI  30
$$

ALZ008>010-301300-
NORTHEAST ALABAMA

CITY           SKY/WX    TMP DP  RH WIND       PRES   REMARKS
ALBERTVILLE    CLOUDY    37  32  81 N13G20    30.32R WCI  29
FORT PAYNE     CLOUDY    37  27  65 N7        30.32R WCI  32
SCOTTSBORO AP  CLOUDY    39  27  60 N8        30.36R WCI  34
VALLEY HEAD      N/A     37 N/A N/A MISG        N/A
$$

TNZ076-096-097-301300-
SOUTHEASTERN MIDDLE TENNESSEE

CITY           SKY/WX    TMP DP  RH WIND       PRES   REMARKS
TULLAHOMA      CLOUDY    34  27  75 N10       30.36R WCI  26
WINCHESTER     CLOUDY    34  28  80 N12       30.36R WCI  25
$$

...SURROUNDING SITES...

CITY           SKY/WX    TMP DP  RH WIND       PRES   REMARKS
ATLANTA        PTCLDY    38  25  59 NW16      30.23R WCI  29
ANNISTON       CLOUDY    41  27  57 CALM      30.31R
BIRMINGHAM     CLOUDY    39  28  64 N9        30.36R WCI  33
CHATTANOOGA    MOCLDY    39  25  57 N21G30    30.33R WCI  29
CORINTH        CLOUDY    41  28  60 N10       30.41R
DALTON         CLOUDY    37  30  75 N10G17    30.29R WCI  30
GADSDEN        CLOUDY   N/A N/A N/A N15       30.33R
GOLDEN TRNGL   CLEAR     36  28  75 NW7       30.39R WCI  30
HALEYVILLE       N/A     38  28  67 N13       30.39R WCI  30
JACKSON TN     CLOUDY    36  24  62 N15       30.45R WCI  27
LEWISBURG      CLOUDY    36  27  70 N10       30.39R WCI  28
MEMPHIS        CLEAR     35  27  72 N6        30.46R WCI  30
MURFREESBORO   CLOUDY    36  27  70 N10       30.40R WCI  28
NASHVILLE      CLOUDY    35  24  64 N12G20    30.42R WCI  27
OXFORD MS      FAIR      27  25  93 CALM      30.45R
ROME           CLOUDY    41  27  57 N13       30.29R
SAVANNAH       CLOUDY    37  25  60 N9        30.42R WCI  31
TUPELO         CLEAR     36  27  69 N5        30.42R WCI  32
TUSCALOOSA     CLOUDY    39  30  70 NW5       30.39R
$$

...GULF COAST WEATHER...

CITY           SKY/WX    TMP DP  RH WIND       PRES   REMARKS
GULFPORT       CLEAR     49  40  71 N10       30.30R
PASCAGOULA     CLEAR     48  40  73 N14       30.30R
MOBILE         MOCLDY    44  36  73 N15       30.32R
GULF SHORES    MOSUNNY   49  40  72 N10       30.27R
PENSACOLA      MOCLDY    50  41  71 N9G18     30.26R
DESTIN         PTCLDY    53  46  77 N12       30.25R
PANAMA CITY    MOCLDY    57  52  83 N12       30.22R
APPALACHICOLA  CLOUDY    62  56  80 N10       30.19R
$$



USA.gov is the U.S. government's official web portal to all federal, state and local government web resources and services.